Back to catalog

DELTA 1 DEB

AlivePO
NORAD 21464·DEBRIS·🇺🇸 United States

Launched Jun 12, 1975 from Vandenberg Space Force Base

Loading…

Next Passes (next 24 hours)

TLE

FreshSource: Space-Track

Epoch: Sep 14, 2026, 05:18 UTC

1 21464U 75052EY  26257.22128590  .00001467  00000-0  34769-2 0  9996
2 21464  99.7721 173.4149 0190339 193.6454 324.8413 13.18690729673197

Track DELTA 1 DEB in real time with AllMySat

Download on the App Store